When you browse on this site, cookies collect data to enhance your experience and personalize the content and advertising you see.
Visit our Privacy Policy to learn more. By continuing to use the site, you agree to this use of cookies and data.
  • en Suisse
  • Liste des pays
  • À 7 jours
  • Température de l'eau
  • Carte satellitaire
  • Carte météo
  • Widgets météo
  • user-avatar
    Se connecter

    Météo par heure à Rangpur

    Ce jour, 25 Avril, Jeudi

    Heure Température Précipitation Vent Pression Humidité
    00:00 +32°C° 0 mm 1 m/s 753 mmHg 46%
    01:00 +31°C° 0 mm 1 m/s 752 mmHg 47%
    02:00 +31°C° 0 mm 2 m/s 752 mmHg 49%
    03:00 +30°C° 0 mm 2 m/s 752 mmHg 50%
    04:00 +30°C° 0 mm 2 m/s 752 mmHg 52%
    05:00 +29°C° 0 mm 2 m/s 752 mmHg 53%
    06:00 +29°C° 0 mm 2 m/s 753 mmHg 55%
    07:00 +31°C° 0 mm 2 m/s 753 mmHg 50%
    08:00 +34°C° 0 mm 2 m/s 753 mmHg 45%
    09:00 +35°C° 0 mm 2 m/s 754 mmHg 40%
    10:00 +37°C° 0 mm 2 m/s 754 mmHg 38%
    11:00 +38°C° 0 mm 2 m/s 753 mmHg 35%
    12:00 +39°C° 0 mm 1 m/s 753 mmHg 32%
    13:00 +40°C° 0 mm 1 m/s 752 mmHg 31%
    14:00 +41°C° 0 mm 1 m/s 752 mmHg 29%
    15:00 +41°C° 0 mm 1 m/s 751 mmHg 27%
    16:00 +41°C° 0 mm 1 m/s 751 mmHg 29%
    17:00 +40°C° 0 mm 1 m/s 750 mmHg 31%
    18:00 +39°C° 0 mm 1 m/s 750 mmHg 32%
    19:00 +37°C° 0 mm 1 m/s 751 mmHg 33%
    20:00 +36°C° 0 mm 1 m/s 751 mmHg 35%
    21:00 +36°C° 0 mm 1 m/s 752 mmHg 36%
    22:00 +35°C° 0 mm 1 m/s 752 mmHg 37%
    23:00 +34°C° 0 mm 1 m/s 752 mmHg 38%

    Demain, 26 Avril, Vendredi

    Heure Température Précipitation Vent Pression Humidité
    00:00 +34°C° 0 mm 1 m/s 752 mmHg 40%
    01:00 +33°C° 0 mm 1 m/s 751 mmHg 42%
    02:00 +32°C° 0 mm 2 m/s 751 mmHg 44%
    03:00 +32°C° 0 mm 2 m/s 751 mmHg 46%
    04:00 +31°C° 0 mm 2 m/s 751 mmHg 48%
    05:00 +31°C° 0 mm 2 m/s 751 mmHg 50%
    06:00 +30°C° 0 mm 2 m/s 751 mmHg 52%
    07:00 +32°C° 0 mm 2 m/s 752 mmHg 48%
    08:00 +35°C° 0 mm 3 m/s 752 mmHg 43%
    09:00 +37°C° 0 mm 3 m/s 753 mmHg 39%
    10:00 +38°C° 0 mm 3 m/s 753 mmHg 37%
    11:00 +39°C° 0 mm 2 m/s 753 mmHg 34%
    12:00 +40°C° 0 mm 2 m/s 752 mmHg 32%
    13:00 +40°C° 0 mm 2 m/s 752 mmHg 31%
    14:00 +42°C° 0 mm 3 m/s 751 mmHg 30%
    15:00 +42°C° 0 mm 3 m/s 750 mmHg 30%
    16:00 +40°C° 0 mm 2 m/s 750 mmHg 32%
    17:00 +40°C° 0 mm 2 m/s 750 mmHg 34%
    18:00 +39°C° 0 mm 2 m/s 749 mmHg 37%
    19:00 +37°C° 0.3 mm 2 m/s 750 mmHg 40%
    20:00 +36°C° 0.3 mm 2 m/s 751 mmHg 44%
    21:00 +35°C° 0.3 mm 2 m/s 751 mmHg 48%
    22:00 +34°C° 0.2 mm 2 m/s 751 mmHg 49%
    23:00 +34°C° 0.2 mm 2 m/s 751 mmHg 51%

    Après-demain, 27 Avril, Samedi

    Heure Température Précipitation Vent Pression Humidité
    00:00 +32°C° 0.2 mm 2 m/s 751 mmHg 53%
    01:00 +32°C° 0 mm 2 m/s 751 mmHg 54%
    02:00 +31°C° 0 mm 2 m/s 751 mmHg 55%
    03:00 +31°C° 0 mm 2 m/s 750 mmHg 57%
    04:00 +30°C° 0.1 mm 2 m/s 751 mmHg 59%
    05:00 +30°C° 0.1 mm 2 m/s 751 mmHg 61%
    06:00 +29°C° 0.1 mm 3 m/s 751 mmHg 63%
    07:00 +31°C° 0.2 mm 3 m/s 752 mmHg 59%
    08:00 +33°C° 0.2 mm 3 m/s 752 mmHg 56%
    09:00 +35°C° 0.2 mm 4 m/s 753 mmHg 52%
    10:00 +36°C° 0 mm 3 m/s 753 mmHg 48%
    11:00 +37°C° 0 mm 3 m/s 752 mmHg 44%
    12:00 +39°C° 0 mm 3 m/s 752 mmHg 40%
    13:00 +39°C° 0 mm 3 m/s 751 mmHg 39%
    14:00 +39°C° 0 mm 2 m/s 750 mmHg 38%
    15:00 +40°C° 0 mm 2 m/s 749 mmHg 38%
    16:00 +39°C° 0 mm 2 m/s 749 mmHg 39%
    17:00 +39°C° 0 mm 3 m/s 748 mmHg 40%
    18:00 +38°C° 0 mm 3 m/s 748 mmHg 42%
    19:00 +37°C° 0 mm 4 m/s 749 mmHg 44%
    20:00 +36°C° 0 mm 5 m/s 749 mmHg 47%
    21:00 +35°C° 0 mm 6 m/s 750 mmHg 50%
    22:00 +34°C° 0 mm 6 m/s 750 mmHg 52%
    23:00 +33°C° 0 mm 6 m/s 750 mmHg 54%

    28 Avril, Dimanche

    Heure Température Précipitation Vent Pression Humidité
    00:00 +33°C° 0 mm 5 m/s 750 mmHg 55%
    01:00 +32°C° 1.2 mm 5 m/s 750 mmHg 60%
    02:00 +30°C° 1.2 mm 5 m/s 750 mmHg 66%
    03:00 +29°C° 1.2 mm 4 m/s 749 mmHg 71%
    04:00 +29°C° 1.5 mm 4 m/s 750 mmHg 74%
    05:00 +28°C° 1.5 mm 4 m/s 750 mmHg 77%
    06:00 +28°C° 1.5 mm 4 m/s 750 mmHg 80%
    07:00 +30°C° 0.1 mm 4 m/s 751 mmHg 75%
    08:00 +32°C° 0.1 mm 4 m/s 752 mmHg 69%
    09:00 +34°C° 0.1 mm 5 m/s 752 mmHg 64%
    10:00 +34°C° 0 mm 5 m/s 752 mmHg 63%
    11:00 +35°C° 0 mm 5 m/s 752 mmHg 61%
    12:00 +35°C° 0 mm 5 m/s 751 mmHg 60%
    13:00 +36°C° 0 mm 5 m/s 751 mmHg 56%
    14:00 +38°C° 0 mm 4 m/s 750 mmHg 51%
    15:00 +40°C° 0 mm 4 m/s 749 mmHg 46%
    16:00 +38°C° 0 mm 4 m/s 749 mmHg 49%
    17:00 +37°C° 0 mm 5 m/s 748 mmHg 52%
    18:00 +37°C° 0 mm 5 m/s 748 mmHg 56%
    19:00 +35°C° 0.1 mm 6 m/s 749 mmHg 60%
    20:00 +34°C° 0.1 mm 6 m/s 749 mmHg 64%
    21:00 +33°C° 0.1 mm 7 m/s 750 mmHg 69%
    22:00 +32°C° 0.7 mm 6 m/s 750 mmHg 72%
    23:00 +30°C° 0.7 mm 6 m/s 750 mmHg 76%

    29 Avril, Lundi

    Heure Température Précipitation Vent Pression Humidité
    00:00 +29°C° 0.7 mm 6 m/s 750 mmHg 79%
    01:00 +29°C° 1.3 mm 5 m/s 750 mmHg 80%
    02:00 +29°C° 1.3 mm 5 m/s 750 mmHg 82%
    03:00 +29°C° 1.3 mm 4 m/s 749 mmHg 83%
    04:00 +29°C° 0.1 mm 5 m/s 750 mmHg 84%
    05:00 +29°C° 0.1 mm 5 m/s 750 mmHg 84%
    06:00 +28°C° 0.1 mm 5 m/s 750 mmHg 85%
    07:00 +29°C° 0.1 mm 5 m/s 751 mmHg 82%
    08:00 +30°C° 0.1 mm 5 m/s 751 mmHg 78%
    09:00 +32°C° 0.1 mm 5 m/s 752 mmHg 75%
    10:00 +33°C° 0.1 mm 5 m/s 751 mmHg 70%
    11:00 +35°C° 0.1 mm 4 m/s 751 mmHg 64%
    12:00 +36°C° 0.1 mm 4 m/s 751 mmHg 59%
    13:00 +37°C° 0 mm 4 m/s 750 mmHg 55%
    14:00 +38°C° 0 mm 4 m/s 749 mmHg 51%
    15:00 +39°C° 0 mm 3 m/s 748 mmHg 47%
    16:00 +38°C° 0 mm 4 m/s 748 mmHg 50%
    17:00 +37°C° 0 mm 4 m/s 747 mmHg 53%
    18:00 +37°C° 0 mm 5 m/s 747 mmHg 56%
    19:00 +35°C° 0 mm 5 m/s 748 mmHg 61%
    20:00 +34°C° 0 mm 5 m/s 749 mmHg 65%
    21:00 +32°C° 0 mm 5 m/s 750 mmHg 70%
    22:00 +32°C° 0.2 mm 6 m/s 750 mmHg 73%
    23:00 +30°C° 0.2 mm 6 m/s 750 mmHg 76%

    30 Avril, Mardi

    Heure Température Précipitation Vent Pression Humidité
    00:00 +29°C° 0.2 mm 6 m/s 750 mmHg 80%
    01:00 +29°C° 0.8 mm 6 m/s 749 mmHg 82%
    02:00 +29°C° 0.8 mm 5 m/s 749 mmHg 84%
    03:00 +29°C° 0.8 mm 5 m/s 749 mmHg 86%
    04:00 +28°C° 0.4 mm 5 m/s 749 mmHg 86%
    05:00 +28°C° 0.4 mm 5 m/s 749 mmHg 87%
    06:00 +28°C° 0.4 mm 5 m/s 749 mmHg 88%
    07:00 +29°C° 0.3 mm 5 m/s 750 mmHg 83%
    08:00 +30°C° 0.3 mm 5 m/s 750 mmHg 79%
    09:00 +33°C° 0.3 mm 5 m/s 751 mmHg 74%
    10:00 +34°C° 0.1 mm 5 m/s 750 mmHg 70%
    11:00 +35°C° 0.1 mm 4 m/s 750 mmHg 66%
    12:00 +36°C° 0.1 mm 4 m/s 749 mmHg 62%
    13:00 +37°C° 0 mm 4 m/s 749 mmHg 58%
    14:00 +38°C° 0 mm 4 m/s 748 mmHg 53%
    15:00 +40°C° 0 mm 4 m/s 747 mmHg 49%
    16:00 +38°C° 0.1 mm 4 m/s 747 mmHg 55%
    17:00 +36°C° 0.1 mm 5 m/s 747 mmHg 61%
    18:00 +35°C° 0.1 mm 6 m/s 746 mmHg 68%
    19:00 +34°C° 0.3 mm 6 m/s 747 mmHg 70%
    20:00 +33°C° 0.3 mm 6 m/s 748 mmHg 73%
    21:00 +32°C° 0.3 mm 6 m/s 749 mmHg 76%
    22:00 +30°C° 0.1 mm 6 m/s 749 mmHg 78%
    23:00 +30°C° 0.1 mm 6 m/s 749 mmHg 81%
    Voir plus